Weather History for Spokane, WA

Change the Weather History Date:

Tuesday, March 25, 2014

  Actual Average Record
Temperature  
Mean Temperature 43 °F 43 °F  
Max Temperature 51 °F 52 °F 71 °F (1960)
Min Temperature 34 °F 34 °F 14 °F (1955)
Degree Days  
Heating Degree Days 22 22  
Month to date heating degree days 649 638  
Since 1 July heating degree days 5692 5467  
Cooling Degree Days 0 0  
Month to date cooling degree days 0 0  
Year to date cooling degree days 0 0  
Moisture  
Dew Point 27 °F    
Average Humidity 61    
Maximum Humidity 79    
Minimum Humidity 42    
Precipitation  
Precipitation 0.00 in 0.05 in 0.61 in (1981)
Month to date precipitation 2.58 1.30  
Year to date precipitation 5.40 4.42  
Snow  
Snow 0.00 in 0.10 in 1.70 in (1984)
Month to date snowfall 5.8 2.9  
Since 1 July snowfall 37.6 43.2  
Snow Depth 0.00 in    
Sea Level Pressure  
Sea Level Pressure 29.73 in    
Wind  
Wind Speed 9 mph (ESE)    
Max Wind Speed 16 mph    
Max Gust Speed 22 mph    
Visibility 10 miles    
Events      
T = Trace of Precipitation, MM = Missing Value Source: NWS Daily Summary

Daily Weather History Graph

Daily Weather History Graph

Search for Another Location

Airport:

Trip Planner

Search our weather history database for the weather conditions in past years. The results will help you decide how hot, cold, wet, or windy it might be!

Date:

Astronomy

Mar. 25, 2014 Rise Set
Actual Time 6:42 AM PDT 7:10 PM PDT
Civil Twilight 6:11 AM PDT 7:41 PM PDT
Nautical Twilight 5:35 AM PDT 8:17 PM PDT
Astronomical Twilight 4:57 AM PDT 8:55 PM PDT
Moon 3:29 AM PDT (3/25) 1:25 PM PDT (3/25)
Length of Visible Light 13h 29m
Length of Day
12h 27m
Waning Crescent, 31% of the Moon is Illuminated
Mar 25
Waning Crescent
Mar 30
New
Apr 7
First Quarter
Apr 15
Full
Apr 22
Last Quarter

Hourly Weather History & Observations

Time (PDT) Temp. Windchill Dew Point Humidity Pressure Visibility Wind Dir Wind Speed Gust Speed Precip Events Conditions
12:53 AM 39.0 °F 34.0 °F 21.9 °F 50% 29.99 in 10.0 mi ENE 6.9 mph - N/A   Partly Cloudy
1:53 AM 37.0 °F 31.0 °F 23.0 °F 57% 29.96 in 10.0 mi NNE 8.1 mph - N/A   Partly Cloudy
2:53 AM 35.1 °F 28.6 °F 23.0 °F 61% 29.94 in 10.0 mi NNE 8.1 mph - N/A   Partly Cloudy
3:53 AM 35.1 °F 28.6 °F 21.9 °F 59% 29.90 in 10.0 mi NE 8.1 mph - N/A   Scattered Clouds
4:53 AM 35.1 °F 29.3 °F 21.9 °F 59% 29.86 in 10.0 mi NE 6.9 mph - N/A   Scattered Clouds
5:53 AM 35.1 °F 27.9 °F 21.9 °F 59% 29.83 in 10.0 mi NE 9.2 mph - N/A   Mostly Cloudy
6:53 AM 35.1 °F 29.3 °F 23.0 °F 61% 29.81 in 10.0 mi NE 6.9 mph - N/A   Mostly Cloudy
7:53 AM 37.0 °F 30.4 °F 23.0 °F 57% 29.78 in 10.0 mi NE 9.2 mph - N/A   Overcast
8:53 AM 37.9 °F 31.5 °F 23.0 °F 55% 29.76 in 10.0 mi NE 9.2 mph - N/A   Overcast
9:53 AM 39.9 °F 33.4 °F 23.0 °F 51% 29.74 in 10.0 mi NE 10.4 mph - N/A   Overcast
10:53 AM 44.1 °F 39.5 °F 25.0 °F 47% 29.71 in 10.0 mi NE 8.1 mph - N/A   Overcast
11:53 AM 46.0 °F - 25.0 °F 44% 29.69 in 10.0 mi Calm Calm - N/A   Overcast
12:53 PM 48.9 °F - 27.0 °F 43% 29.67 in 10.0 mi South 5.8 mph - N/A   Overcast
1:53 PM 50.0 °F - 30.0 °F 46% 29.65 in 10.0 mi SSE 10.4 mph - N/A   Overcast
2:53 PM 50.0 °F - 30.0 °F 46% 29.63 in 10.0 mi South 15.0 mph 18.4 mph N/A   Overcast
3:53 PM 48.0 °F - 30.9 °F 52% 29.64 in 10.0 mi SSW 13.8 mph - N/A   Overcast
4:53 PM 46.9 °F - 30.9 °F 54% 29.64 in 10.0 mi SSW 6.9 mph - N/A   Overcast
5:53 PM 46.9 °F - 28.9 °F 50% 29.62 in 10.0 mi South 6.9 mph - N/A   Overcast
6:53 PM 45.0 °F 40.6 °F 28.9 °F 53% 29.63 in 10.0 mi South 8.1 mph - N/A   Mostly Cloudy
7:53 PM 45.0 °F 39.3 °F 27.0 °F 49% 29.62 in 10.0 mi SSW 11.5 mph - N/A   Mostly Cloudy
8:53 PM 45.0 °F 39.3 °F 30.9 °F 58% 29.62 in 10.0 mi SSW 11.5 mph - N/A   Mostly Cloudy
9:53 PM 41.0 °F 36.4 °F 30.9 °F 67% 29.63 in 10.0 mi SSE 6.9 mph - N/A   Partly Cloudy
10:53 PM 41.0 °F 35.2 °F 35.1 °F 79% 29.62 in 10.0 mi South 9.2 mph - N/A   Partly Cloudy
11:53 PM 39.0 °F 33.4 °F 34.0 °F 82% 29.61 in 10.0 mi SSE 8.1 mph - N/A   Mostly Cloudy